SQ5DCP-1 Weather Reports


time (UTC)temp
C
wind
direction
speed
KPH
gust
KPH
rain 1hr
cm
rain 24hr
cm
rain mn
cm
humidity
%
barometer
mb
20260509125032 11 327 3.2 6.4 0.00 0.00 0.00 66 1020.6
20260509124530 11 306 4.8 17.7 0.00 0.00 0.00 66 1020.5
20260509124048 11 349 6.4 16.1 0.00 0.00 0.00 67 102.0
20260509124029 11 349 6.4 16.1 0.00 0.00 0.00 67 1020.5
20260509123527 10 355 4.8 14.5 0.00 0.00 0.00 68 1020.5
20260509123025 10 337 6.4 14.5 0.00 0.00 0.00 70 1020.5
20260509122523 10 327 3.2 9.7 0.00 0.00 0.00 72 1020.6
20260509122021 10 352 4.8 11.3 0.00 0.00 0.00 72 1020.7
20260509121520 10 305 4.8 12.9 0.00 0.00 0.00 72 1020.7
20260509121018 10 337 3.2 9.7 0.00 0.00 0.00 72 1020.8
20260509120516 10 308 4.8 12.9 0.00 0.00 0.00 73 1020.8
20260509120034 10 316 4.8 16.1 0.00 0.00 0.00 73 1020.8
20260509115533 10 325 3.2 11.3 0.00 0.00 0.00 73 1020.9
20260509115031 10 324 1.6 6.4 0.00 0.00 0.00 73 1020.8
20260509114529 10 357 4.8 17.7 0.00 0.00 0.00 73 1020.8
20260509114028 10 341 4.8 11.3 0.00 0.00 0.00 73 1020.8
20260509113526 10 342 4.8 12.9 0.00 0.00 0.00 73 1020.8
20260509113024 10 340 4.8 6.4 0.00 0.00 0.00 73 1020.8
20260509112521 10 0 3.2 12.9 0.00 0.00 0.00 73 1020.8
20260509112020 10 332 3.2 9.7 0.00 0.00 0.00 73 1020.8
20260509111518 10 340 6.4 14.5 0.00 0.00 0.00 73 1020.8
20260509111016 10 349 6.4 12.9 0.00 0.00 0.00 73 1020.8
20260509110534 10 359 8.0 16.1 0.00 0.00 0.00 73 1020.7
20260509110032 10 4 8.0 17.7 0.00 0.00 0.00 74 1020.8
20260509105531 10 344 8.0 20.9 0.00 0.00 0.00 75 1020.7
20260509105029 10 316 3.2 9.7 0.00 0.00 0.00 76 1020.6
20260509104527 10 299 3.2 11.3 0.00 0.00 0.00 76 1020.7
20260509104026 10 297 4.8 9.7 0.00 0.00 0.00 78 1020.6
20260509103523 10 294 3.2 9.7 0.00 0.00 0.00 77 1020.7
20260509103021 10 297 3.2 6.4 0.00 0.00 0.00 77 1020.6
20260509102520 10 300 4.8 14.5 0.00 0.00 0.00 76 1020.6
20260509102019 10 315 6.4 16.1 0.00 0.00 0.00 77 1020.6
20260509101516 10 314 6.4 12.9 0.00 0.00 0.00 77 1020.6
20260509101034 10 291 3.2 9.7 0.00 0.00 0.00 76 1020.6
20260509100532 10 320 4.8 12.9 0.00 0.00 0.00 77 1020.6
20260509100030 10 297 6.4 17.7 0.00 0.00 0.00 77 1020.6
20260509095528 10 308 6.4 16.1 0.00 0.00 0.00 76 1020.4
20260509095027 10 309 6.4 14.5 0.00 0.00 0.00 76 1020.4
20260509094525 10 295 8.0 16.1 0.00 0.00 0.00 74 1020.4
20260509094023 10 298 8.0 17.7 0.00 0.00 0.00 75 1020.4
20260509093521 10 308 8.0 14.5 0.00 0.00 0.00 75 1020.4
20260509093020 10 294 8.0 24.1 0.00 0.00 0.00 75 1020.3
20260509092518 10 325 6.4 16.1 0.00 0.00 0.00 75 1020.3
20260509092016 10 328 6.4 16.1 0.00 0.00 0.00 74 1020.2
20260509091535 10 312 6.4 12.9 0.00 0.00 0.00 74 1020.3
20260509091032 10 355 9.7 16.1 0.00 0.00 0.00 74 1020.3
20260509090531 10 338 4.8 12.9 0.00 0.00 0.00 74 1020.3
20260509090029 10 331 4.8 11.3 0.00 0.00 0.00 74 1020.2
20260509085527 10 307 6.4 11.3 0.00 0.00 0.00 73 1020.2
20260509085026 10 342 6.4 16.1 0.00 0.00 0.00 73 1020.3
20260509084524 10 314 4.8 11.3 0.00 0.00 0.00 74 1020.2
20260509084022 10 339 4.8 14.5 0.00 0.00 0.00 73 1020.2
20260509083520 10 298 6.4 12.9 0.00 0.00 0.00 73 1020.1
20260509083018 10 301 6.4 14.5 0.00 0.00 0.00 73 1020.1
20260509082516 10 321 4.8 12.9 0.00 0.00 0.00 73 1020.1
20260509082034 11 294 6.4 12.9 0.00 0.00 0.00 73 1020.1
20260509081532 11 301 6.4 12.9 0.00 0.00 0.00 73 1020.1
20260509081031 11 276 8.0 14.5 0.00 0.00 0.00 74 1020.0
20260509080529 10 292 6.4 14.5 0.00 0.00 0.00 74 1019.9
20260509080027 10 306 6.4 14.5 0.00 0.00 0.00 75 1020.0
20260509075525 10 312 6.4 12.9 0.00 0.00 0.00 75 1020.0
20260509075023 10 310 11.3 20.9 0.00 0.00 0.00 75 1020.0
20260509074521 10 309 8.0 16.1 0.00 0.00 0.00 76 1019.9
20260509074019 10 332 6.4 12.9 0.00 0.00 0.00 76 1020.0
20260509073519 10 295 4.8 11.3 0.00 0.00 0.00 77 1019.9
20260509073048 10 300 4.8 14.5 0.00 0.00 0.00 77 1020.0
20260509073016 10 300 4.8 14.5 0.00 0.00 0.00 77 1020.0
20260509072534 10 285 4.8 12.9 0.00 0.00 0.00 77 1019.9
20260509072033 10 296 6.4 11.3 0.00 0.00 0.00 77 1020.0
20260509071530 10 312 4.8 12.9 0.00 0.00 0.00 78 1019.9
20260509071029 10 297 4.8 11.3 0.00 0.00 0.00 78 1019.9
20260509070528 10 343 3.2 11.3 0.00 0.00 0.00 78 1019.9
20260509070049 10 333 4.8 9.7 0.00 0.00 0.00 79 1019.9
20260509070025 10 333 4.8 9.7 0.00 0.00 0.00 79 1019.9
20260509065523 10 351 4.8 11.3 0.00 0.00 0.00 80 1019.8
20260509065021 10 304 3.2 6.4 0.00 0.00 0.00 80 1019.9
20260509064519 10 291 1.6 6.4 0.00 0.00 0.00 80 1019.8
20260509064017 10 292 3.2 6.4 0.00 0.00 0.00 81 1019.9
20260509063516 10 288 1.6 3.2 0.00 0.00 0.00 81 1019.8
20260509063034 9 303 3.2 9.7 0.00 0.00 0.00 81 1019.8
20260509062532 9 295 4.8 9.7 0.00 0.00 0.00 81 1019.7
20260509062031 9 307 3.2 6.4 0.00 0.00 0.00 81 1019.9
20260509061529 9 310 3.2 9.7 0.00 0.00 0.00 81 1019.7
20260509061026 9 302 4.8 11.3 0.00 0.00 0.00 81 1019.8
20260509060525 9 318 3.2 9.7 0.00 0.00 0.00 81 1019.7
20260509060023 9 300 3.2 9.7 0.00 0.00 0.00 81 1019.8
20260509055521 9 335 3.2 9.7 0.00 0.00 0.00 81 1019.7
20260509055019 9 298 3.2 9.7 0.00 0.00 0.00 82 1019.8
20260509054517 9 304 4.8 9.7 0.00 0.00 0.00 82 1019.7
20260509054016 9 330 3.2 9.7 0.00 0.00 0.00 82 1019.7
20260509053534 9 338 4.8 11.3 0.00 0.00 0.00 82 1019.6
20260509053031 9 294 3.2 6.4 0.00 0.00 0.00 82 1019.6
20260509052530 9 305 4.8 12.9 0.00 0.00 0.00 82 1019.6
20260509052028 9 299 3.2 9.7 0.00 0.00 0.00 82 1019.6
20260509051525 9 304 4.8 11.3 0.00 0.00 0.00 83 1019.6
20260509051023 9 299 3.2 11.3 0.00 0.00 0.00 83 1019.6
20260509050521 9 342 3.2 6.4 0.00 0.00 0.00 83 1019.5
20260509050050 9 314 3.2 0.0 0.00 0.00 0.00 83 1019.6
20260509050019 9 314 3.2 9.7 0.00 0.00 0.00 83 1019.6
20260509045517 9 316 1.6 6.4 0.00 0.00 0.00 83 1019.5
20260509045037 9 290 4.8 9.7 0.00 0.00 0.00 83 1019.6
20260509044533 9 287 3.2 9.7 0.00 0.00 0.00 83 1019.6
20260509044031 9 289 4.8 9.7 0.00 0.00 0.00 83 1019.5
20260509043529 9 298 4.8 9.7 0.00 0.00 0.00 83 1019.5
20260509043028 9 295 4.8 11.3 0.00 0.00 0.00 83 1019.5
20260509042526 9 288 4.8 11.3 0.00 0.00 0.00 83 1019.5
20260509042024 9 288 1.6 6.4 0.00 0.00 0.00 83 1019.4
20260509041523 9 294 3.2 6.4 0.00 0.00 0.00 83 1019.4
20260509041020 9 287 4.8 9.7 0.00 0.00 0.00 83 1019.5
20260509040519 9 301 1.6 4.8 0.00 0.00 0.00 82 1019.3
20260509040017 9 313 3.2 9.7 0.00 0.00 0.00 82 1019.3
20260509035535 9 284 3.2 6.4 0.00 0.00 0.00 82 1019.4
20260509035033 9 292 1.6 4.8 0.00 0.00 0.00 83 1019.3
20260509034531 9 288 4.8 9.7 0.00 0.00 0.00 83 1019.3
20260509034028 9 300 3.2 6.4 0.00 0.00 0.00 83 1019.3
20260509033527 9 291 3.2 9.7 0.00 0.00 0.00 83 1019.2
20260509033025 9 292 4.8 9.7 0.00 0.00 0.00 83 1019.3
20260509032523 9 299 3.2 9.7 0.00 0.00 0.00 82 1019.4
20260509032021 9 298 3.2 9.7 0.00 0.00 0.00 82 1019.4
20260509031519 9 294 4.8 9.7 0.00 0.00 0.00 82 1019.4
20260509031018 9 286 3.2 9.7 0.00 0.00 0.00 82 1019.4
20260509030536 9 294 4.8 11.3 0.00 0.00 0.00 82 1019.4
20260509030034 9 313 3.2 6.4 0.00 0.00 0.00 82 1019.4
20260509025532 9 297 1.6 4.8 0.00 0.00 0.00 82 1019.4
20260509025030 9 292 1.6 4.8 0.00 0.00 0.00 82 1019.5
20260509024528 9 288 3.2 6.4 0.00 0.00 0.00 82 1019.5
20260509024027 9 292 3.2 9.7 0.00 0.00 0.00 82 1019.6
20260509023524 9 285 3.2 6.4 0.00 0.00 0.00 82 1019.4
20260509023024 9 295 4.8 9.7 0.00 0.00 0.00 82 1019.5
20260509022521 9 288 3.2 6.4 0.00 0.00 0.00 81 1019.5
20260509022050 9 288 3.2 9.7 0.00 0.00 0.00 81 1019.6
20260509022019 9 288 3.2 9.7 0.00 0.00 0.00 81 1019.6
20260509021517 9 287 4.8 11.3 0.00 0.00 0.00 81 1019.6
20260509021035 9 302 3.2 6.4 0.00 0.00 0.00 81 1019.5
20260509020534 9 296 3.2 6.4 0.00 0.00 0.00 81 1019.6
20260509020032 9 297 3.2 6.4 0.00 0.00 0.00 81 1019.5
20260509015530 9 283 4.8 9.7 0.00 0.00 0.00 81 1019.5
20260509015028 9 296 3.2 11.3 0.00 0.00 0.00 81 1019.5
20260509014526 9 288 3.2 6.4 0.00 0.00 0.00 81 1019.6
20260509014025 9 289 4.8 6.4 0.00 0.00 0.00 81 1019.5
20260509013523 9 291 3.2 11.3 0.00 0.00 0.00 81 1019.6
20260509013040 9 304 4.8 12.9 0.00 0.00 0.00 81 1019.5
20260509012535 9 295 4.8 9.7 0.00 0.00 0.00 81 1019.6
20260509012032 9 302 4.8 11.3 0.00 0.00 0.00 81 1019.6
20260509011530 9 289 3.2 9.7 0.00 0.00 0.00 81 1019.6
20260509011049 10 304 4.8 6.4 0.00 0.00 0.00 80 1019.1
20260509011028 10 304 4.8 6.4 0.00 0.00 0.00 80 1019.6
20260509010527 10 295 4.8 11.3 0.00 0.00 0.00 80 1019.5
20260509010025 10 285 4.8 12.9 0.00 0.00 0.00 80 1019.6
20260509005523 10 288 3.2 6.4 0.00 0.00 0.00 80 1019.5
20260509005021 10 298 3.2 11.3 0.00 0.00 0.00 80 1019.5
20260509004520 10 291 4.8 11.3 0.00 0.00 0.00 80 1019.5
20260509004018 10 309 4.8 11.3 0.00 0.00 0.00 80 1019.5
20260509003516 10 299 4.8 9.7 0.00 0.00 0.00 79 1019.6
20260509003034 10 288 4.8 11.3 0.00 0.00 0.00 79 1019.6
20260509002532 10 294 3.2 9.7 0.00 0.00 0.00 79 1019.6
20260509002031 10 289 4.8 6.4 0.00 0.00 0.00 79 1019.7
20260509001529 10 289 4.8 6.4 0.00 0.00 0.00 79 1019.6
20260509001027 10 293 3.2 11.3 0.00 0.00 0.00 78 1019.7
20260509000526 10 279 4.8 11.3 0.00 0.00 0.00 78 1019.7
20260509000024 10 297 3.2 6.4 0.00 0.00 0.00 79 1019.7
20260508235522 10 283 3.2 11.3 0.00 0.00 0.00 79 1019.7
20260508235020 10 284 6.4 11.3 0.00 0.00 0.00 78 1019.7
20260508234518 10 307 4.8 9.7 0.00 0.00 0.00 79 1019.7
20260508234049 10 277 3.2 9.7 0.00 0.00 0.00 79 1019.7
20260508234017 10 277 3.2 9.7 0.00 0.00 0.00 79 1019.7
20260508233534 10 306 3.2 9.7 0.00 0.00 0.00 79 1019.7
20260508233033 10 280 3.2 6.4 0.00 0.00 0.00 79 1019.7
20260508232530 10 293 3.2 6.4 0.00 0.00 0.00 79 1019.7
20260508232029 10 286 3.2 6.4 0.00 0.00 0.00 78 1019.8
20260508231527 10 289 3.2 6.4 0.00 0.00 0.00 78 1019.7
20260508231025 10 296 3.2 9.7 0.00 0.00 0.00 78 1019.7
20260508230524 10 291 3.2 6.4 0.00 0.00 0.00 78 1019.7
20260508230022 10 289 4.8 9.7 0.00 0.00 0.00 78 1019.8
20260508225521 10 292 3.2 4.8 0.00 0.00 0.00 78 1019.8
20260508225018 10 291 3.2 6.4 0.00 0.00 0.00 78 1019.7
20260508224516 10 288 3.2 6.4 0.00 0.00 0.00 78 1019.7
20260508224035 10 286 1.6 6.4 0.00 0.00 0.00 78 1019.7
20260508223533 10 304 3.2 6.4 0.00 0.00 0.00 78 1019.6
20260508223031 10 305 3.2 6.4 0.00 0.00 0.00 77 1019.7
20260508222529 10 293 3.2 11.3 0.00 0.00 0.00 77 1019.6
20260508222027 10 285 3.2 11.3 0.00 0.00 0.00 77 1019.7
20260508221526 10 285 3.2 6.4 0.00 0.00 0.00 77 1019.6
20260508221024 10 277 3.2 6.4 0.00 0.00 0.00 77 1019.6
20260508220522 10 291 3.2 4.8 0.00 0.00 0.00 77 1019.6
20260508220021 10 295 1.6 6.4 0.00 0.00 0.00 77 1019.6
20260508215518 10 297 3.2 9.7 0.00 0.00 0.00 77 1019.6
20260508215048 10 295 1.6 4.8 0.00 0.00 0.00 77 1019.6
20260508215017 10 295 1.6 4.8 0.00 0.00 0.00 77 1019.6
20260508214535 10 286 1.6 6.4 0.00 0.00 0.00 76 1019.6
20260508214033 10 284 3.2 6.4 0.00 0.00 0.00 76 1019.6
20260508213531 10 284 3.2 4.8 0.00 0.00 0.00 77 1019.6
20260508213029 10 300 4.8 11.3 0.00 0.00 0.00 76 1019.6
20260508212528 10 289 1.6 6.4 0.00 0.00 0.00 76 1019.8
20260508212026 10 285 1.6 4.8 0.00 0.00 0.00 77 1019.7
20260508211524 10 299 3.2 6.4 0.00 0.00 0.00 77 1019.7
20260508211022 10 321 3.2 9.7 0.00 0.00 0.00 77 1019.7
20260508210521 10 316 4.8 11.3 0.00 0.00 0.00 77 1019.8
20260508210018 10 314 4.8 9.7 0.00 0.00 0.00 77 1019.7
20260508205517 10 310 4.8 9.7 0.00 0.00 0.00 76 1019.8
20260508205035 10 311 4.8 11.3 0.00 0.00 0.00 76 1019.8
20260508204533 10 307 3.2 9.7 0.00 0.00 0.00 76 1019.8
20260508204031 10 301 4.8 9.7 0.00 0.00 0.00 77 1019.7
20260508203530 10 317 3.2 11.3 0.00 0.00 0.00 77 1019.7
20260508203027 11 326 4.8 11.3 0.00 0.00 0.00 77 1019.7
20260508202525 11 285 3.2 6.4 0.00 0.00 0.00 77 1019.7
20260508202023 11 310 3.2 6.4 0.00 0.00 0.00 77 1019.7
20260508201522 11 314 3.2 6.4 0.00 0.00 0.00 77 1019.7
20260508201020 11 299 4.8 11.3 0.00 0.00 0.00 78 1019.6
20260508200518 11 310 3.2 9.7 0.00 0.00 0.00 77 1019.6
20260508200049 11 331 1.6 6.4 0.00 0.00 0.00 78 1019.7
20260508200016 11 331 1.6 6.4 0.00 0.00 0.00 78 1019.7
20260508195534 11 326 3.2 9.7 0.00 0.00 0.00 77 1019.7
20260508195033 11 314 3.2 12.9 0.00 0.00 0.00 76 1019.6
20260508194531 11 315 4.8 11.3 0.00 0.00 0.00 76 1019.5
20260508194049 11 333 4.8 11.3 0.00 0.00 0.00 75 1019.6
20260508194029 11 333 4.8 11.3 0.00 0.00 0.00 75 1019.6
20260508193528 11 310 4.8 12.9 0.00 0.00 0.00 75 1019.5
20260508193025 11 318 4.8 11.3 0.00 0.00 0.00 75 1019.6
20260508192523 11 300 3.2 11.3 0.00 0.00 0.00 75 1019.5
20260508192021 11 304 3.2 9.7 0.00 0.00 0.00 75 1019.6
20260508191520 11 296 3.2 11.3 0.00 0.00 0.00 74 1019.5
20260508191018 11 318 3.2 9.7 0.00 0.00 0.00 74 1019.5
20260508190535 11 321 4.8 11.3 0.00 0.00 0.00 74 1019.5
20260508190034 11 298 3.2 9.7 0.00 0.00 0.00 74 1019.5
20260508185532 11 300 1.6 4.8 0.00 0.00 0.00 74 1019.4
20260508185030 11 289 1.6 4.8 0.00 0.00 0.00 74 1019.3
20260508184527 11 320 3.2 9.7 0.00 0.00 0.00 74 1019.3
20260508184026 11 290 4.8 9.7 0.00 0.00 0.00 74 1019.3
20260508183524 11 315 3.2 11.3 0.00 0.00 0.00 74 1019.2
20260508183022 11 325 4.8 11.3 0.00 0.00 0.00 74 1019.2
20260508182519 11 332 1.6 9.7 0.00 0.00 0.00 74 1019.1
20260508182048 11 304 3.2 11.3 0.00 0.00 0.00 73 1019.1
20260508182017 11 304 3.2 11.3 0.00 0.00 0.00 73 1019.1
20260508181516 11 331 4.8 11.3 0.00 0.00 0.00 73 1019.0
20260508181034 11 294 4.8 11.3 0.00 0.03 0.00 73 1018.9
20260508180533 11 317 3.2 6.4 0.00 0.03 0.00 73 1018.9
20260508180029 11 293 3.2 9.7 0.00 0.03 0.00 73 1018.9
20260508175527 11 307 3.2 9.7 0.00 0.03 0.00 73 1018.8
20260508175025 11 298 4.8 11.3 0.00 0.03 0.00 73 1018.7
20260508174523 11 274 3.2 6.4 0.00 0.03 0.00 73 1018.6
20260508174022 11 290 3.2 9.7 0.00 0.03 0.00 73 1018.6
20260508173519 11 287 3.2 9.7 0.00 0.03 0.00 73 1018.6
20260508173049 12 279 6.4 11.3 0.00 0.03 0.00 73 1018.7
20260508173018 12 279 6.4 11.3 0.00 0.03 0.00 73 1018.7
20260508172535 12 276 4.8 11.3 0.00 0.03 0.00 72 1018.6
20260508172035 12 297 6.4 16.1 0.00 0.03 0.00 73 1018.6
20260508171533 12 294 4.8 9.7 0.00 0.03 0.00 72 1018.6
20260508171030 12 310 6.4 16.1 0.00 0.03 0.00 72 1018.7
20260508170529 12 292 6.4 12.9 0.00 0.03 0.00 72 1018.6
20260508170027 12 316 6.4 12.9 0.00 0.03 0.00 72 1018.5
20260508165524 12 305 4.8 14.5 0.00 0.03 0.00 72 1018.5
20260508165022 12 311 8.0 14.5 0.00 0.03 0.00 72 1018.4
20260508164520 12 295 6.4 14.5 0.00 0.03 0.00 72 1018.5
20260508164051 12 306 4.8 12.9 0.00 0.03 0.00 72 1018.4
20260508164020 12 306 4.8 12.9 0.00 0.03 0.00 72 1018.4
20260508163517 12 308 4.8 9.7 0.00 0.03 0.00 72 1018.5
20260508163035 12 294 6.4 14.5 0.00 0.03 0.00 71 1018.5
20260508162533 12 309 6.4 14.5 0.00 0.03 0.00 71 1018.4
20260508162032 12 324 6.4 12.9 0.00 0.03 0.00 71 1018.4
20260508161530 12 321 4.8 9.7 0.00 0.03 0.00 72 1018.3
20260508161028 12 316 4.8 11.3 0.00 0.03 0.00 71 1018.3
20260508160526 12 311 6.4 14.5 0.00 0.03 0.00 71 1018.4
20260508160024 12 301 6.4 12.9 0.00 0.03 0.00 71 1018.4
20260508155523 12 310 6.4 14.5 0.00 0.03 0.00 71 1018.4
20260508155020 12 300 6.4 14.5 0.00 0.03 0.00 71 1018.4
20260508154519 12 296 6.4 14.5 0.00 0.03 0.00 71 1018.4
20260508154049 12 297 6.4 16.1 0.00 0.03 0.00 71 1018.4
20260508154017 12 297 6.4 16.1 0.00 0.03 0.00 71 1018.4
20260508153535 12 303 4.8 16.1 0.00 0.03 0.00 71 1018.4
20260508153034 12 315 6.4 16.1 0.00 0.03 0.00 71 1018.4
20260508152531 12 292 8.0 14.5 0.00 0.03 0.00 71 1018.3
20260508152029 12 310 6.4 14.5 0.00 0.03 0.00 71 1018.4
20260508151526 12 301 9.7 22.5 0.00 0.03 0.00 71 1018.3
20260508151025 12 317 8.0 20.9 0.00 0.03 0.00 71 1018.3
20260508150523 12 291 4.8 14.5 0.00 0.03 0.00 70 1018.2
20260508150021 12 293 4.8 16.1 0.00 0.03 0.00 71 1018.2
20260508145519 12 312 6.4 16.1 0.00 0.03 0.00 71 1018.2
20260508145017 12 337 8.0 16.1 0.00 0.03 0.00 71 1018.1
20260508144536 12 347 4.8 14.5 0.00 0.03 0.00 71 1018.1
20260508144034 12 300 4.8 14.5 0.00 0.03 0.00 72 1018.2
20260508143532 12 337 6.4 16.1 0.00 0.03 0.00 71 1018.2
20260508143030 12 334 4.8 11.3 0.00 0.03 0.00 72 1018.2
20260508142528 12 327 4.8 12.9 0.00 0.03 0.00 72 1018.3
20260508142026 12 322 4.8 16.1 0.00 0.03 0.00 72 1018.2
20260508141525 12 312 6.4 14.5 0.00 0.03 0.00 72 1018.2
20260508141023 12 287 6.4 14.5 0.00 0.03 0.00 72 1018.3
20260508140520 12 305 8.0 14.5 0.00 0.03 0.00 72 1018.3
20260508140020 12 309 6.4 16.1 0.00 0.03 0.00 72 1018.2
20260508135536 12 290 6.4 12.9 0.00 0.03 0.00 72 1018.2
20260508135034 12 312 4.8 9.7 0.00 0.03 0.00 71 1018.2
20260508134532 12 337 3.2 14.5 0.00 0.03 0.00 72 1018.3
20260508134030 12 305 4.8 11.3 0.00 0.03 0.00 72 1018.3
20260508133528 12 312 3.2 11.3 0.00 0.03 0.00 72 1018.3
20260508133026 12 331 4.8 11.3 0.00 0.03 0.00 71 1018.3
20260508132525 12 339 4.8 14.5 0.00 0.03 0.00 71 1018.2
20260508132023 13 329 3.2 6.4 0.00 0.03 0.00 71 1018.3
20260508131521 13 309 3.2 11.3 0.00 0.03 0.00 71 1018.4
20260508131019 13 275 4.8 11.3 0.00 0.03 0.00 71 1018.3
20260508130517 13 276 8.0 16.1 0.00 0.03 0.00 71 1018.4
20260508130046 13 300 8.0 17.7 0.00 0.03 0.00 71 1018.4
20260508130015 13 300 8.0 17.7 0.00 0.03 0.00 71 1018.4
20260508125534 13 287 8.0 16.1 0.00 0.03 0.00 70 1018.4